[[{"header":{"parameterUnit":"m.s-1","parameterCategory":1,"la1":30.2991,"la2":30.254,"lo1":-89.0895,"lo2":-89.0444,"dy":0.0017,"dx":0.0017,"nx":28,"ny":28,"refTime":"2025-01-17T03:00:00:Z","depth":0,"parameterNumber":2,"parameterNumberName":"U-component_of_WINDS"},"data":[0,0,0,0,0,0,0,0,0,0,0,0,0,0,0,0,0,0,0,0,0,0,0,0,0,0,0,0,0,0,0,0,0,0,0,0,0,0,0,0,0,0,0,0,0,0,0,0,0,0,0,0,0,0,0,0,0,0,-2.1707,-2.1707,0,-2.1696,-2.1696,-2.1696,-2.1661,-2.166,-2.1659,-2.1659,-2.1649,-2.1649,-2.165,0,0,0,0,0,0,0,0,0,0,0,0,0,-2.17,-2.17,-2.1707,-2.1707,-2.1707,-2.1696,-2.1696,-2.1696,-2.1661,-2.166,-2.1659,-2.1658,-2.1649,-2.1649,-2.165,0,0,0,0,0,0,0,0,0,0,0,0,0,-2.1697,-2.17,-2.1707,-2.1688,-2.1686,-2.1697,-2.1696,-2.1696,-2.1661,-2.166,-2.1659,-2.1658,-2.1648,-2.1649,-2.165,-2.1678,0,0,-2.1652,-2.1652,0,0,0,0,0,0,0,0,-2.1697,-2.1698,-2.1691,-2.169,-2.1688,-2.1679,-2.169,-2.169,-2.1662,-2.1671,-2.1659,-2.1657,-2.166,-2.166,-2.166,-2.1678,-2.1677,-2.1652,-2.1653,-2.1653,-2.1653,0,0,0,0,0,0,0,-2.1698,-2.1698,-2.1703,-2.1691,-2.1689,-2.1681,-2.1679,-2.169,-2.1672,-2.167,-2.1667,-2.1666,-2.1659,-2.166,-2.166,-2.1677,-2.1652,-2.1653,-2.1653,-2.1653,-2.1718,-2.1719,0,0,0,0,0,0,-2.17,-2.1698,-2.1703,-2.1703,-2.169,-2.1682,-2.168,-2.1683,-2.1672,-2.1669,-2.1667,-2.1665,-2.1659,-2.1659,-2.1659,-2.1692,-2.1653,-2.1654,-2.1654,-2.1717,-2.1718,-2.172,0,0,0,0,0,0,-2.17,-2.1701,-2.1704,-2.17,-2.1699,-2.1683,-2.1687,-2.1683,-2.1684,-2.167,-2.1667,-2.1672,-2.1658,-2.1658,-2.1674,-2.1691,-2.1654,-2.1655,-2.1715,-2.1717,-2.1719,-2.1757,0,0,0,0,0,0,-2.17,-2.1701,-2.1711,-2.17,-2.17,-2.1718,-2.1688,-2.1684,-2.1685,-2.1682,-2.1673,-2.167,-2.1657,-2.1673,-2.1674,-2.1691,-2.1655,-2.1714,-2.1716,-2.1718,-2.1754,-2.176,-2.1765,0,0,0,0,0,-2.17,-2.1723,-2.1712,-2.1713,-2.1712,-2.1719,-2.1719,-2.1703,-2.1687,-2.1697,-2.1688,-2.1671,-2.1689,-2.1675,-2.1676,-2.1694,-2.1712,-2.1715,-2.1718,-2.1752,-2.1759,-2.1765,0,0,0,0,0,0,-2.1736,-2.1721,-2.1709,-2.1728,-2.1725,-2.1713,-2.1725,-2.1711,-2.1712,-2.1709,-2.1689,-2.1687,-2.1706,-2.1701,-2.1686,-2.1721,-2.1698,-2.1701,-2.1723,-2.173,-2.1735,-2.1736,-2.1656,0,0,0,0,0,-2.1747,-2.1753,-2.1739,-2.1758,-2.1757,-2.1742,-2.1744,-2.1732,-2.1728,-2.1727,-2.1719,-2.1716,-2.1722,-2.1725,-2.1729,-2.1754,-2.1752,-2.1766,-2.1772,-2.1776,-2.1779,-2.1793,-2.1799,-2.1729,-2.1729,-2.1729,0,0,-2.1768,-2.176,-2.1766,-2.1765,-2.1761,-2.1769,-2.1741,-2.175,-2.1756,-2.1728,-2.1742,-2.1737,-2.1733,-2.1753,-2.1761,-2.175,-2.1799,-2.178,-2.1784,-2.1784,-2.1796,-2.1803,-2.1809,-2.1731,-2.1731,-2.173,0,0,-2.1811,-2.1806,-2.1821,-2.1818,-2.1812,-2.1802,-2.1806,-2.1796,-2.1791,-2.1805,-2.1784,-2.1791,-2.18,-2.1798,-2.1799,-2.1842,-2.1826,-2.1844,-2.1872,-2.1885,-2.1891,-2.1896,-2.1912,-2.1917,-2.1847,-2.1847,-2.1847,0,-2.1838,-2.1848,-2.183,-2.1841,-2.1842,-2.1817,-2.1833,-2.1831,-2.1827,-2.1829,-2.1815,-2.1827,-2.1822,-2.1842,-2.1853,-2.1853,-2.1858,-2.1845,-2.1891,-2.1896,-2.19,-2.1915,-2.1921,-2.1849,-2.1849,-2.1849,-2.1849,0,-2.1883,-2.189,-2.1903,-2.19,-2.1902,-2.1916,-2.19,-2.1905,-2.1893,-2.1884,-2.1899,-2.1893,-2.1896,-2.1899,-2.1888,-2.1918,-2.1911,-2.1895,-2.1871,-2.191,-2.1923,-2.1929,-2.1852,-2.1852,-2.1851,-2.185,0,0,-2.1947,-2.1934,-2.194,-2.1938,-2.1931,-2.1937,-2.1949,-2.1951,-2.1956,-2.1955,-2.1965,-2.1974,-2.1959,-2.196,-2.1948,-2.1959,-2.1995,-2.1942,-2.1942,-2.1952,-2.2028,-2.204,-2.2047,-2.1984,-2.1985,-2.1986,-2.2028,0,-2.1988,-2.2008,-2.1993,-2.2016,-2.2023,-2.2,-2.2011,-2.2008,-2.2001,-2.2007,-2.1999,-2.2005,-2.1985,-2.1985,-2.1996,-2.1988,-2.2009,-2.1985,-2.1994,-2.1995,-2.1996,-2.2054,-2.2066,-2.2107,-2.2034,-2.2034,-2.2035,0,-2.2038,-2.2039,-2.2063,-2.2054,-2.2057,-2.2067,-2.2068,-2.2073,-2.207,-2.2064,-2.2065,-2.205,-2.2063,-2.204,-2.2057,-2.2041,-2.2044,-2.2041,-2.2042,-2.2042,-2.2017,-2.2056,-2.2119,-2.2125,-2.2043,-2.2043,-2.2042,0,-2.2083,-2.209,-2.2105,-2.2105,-2.2095,-2.2103,-2.21,-2.2095,-2.2098,-2.2099,-2.2101,-2.2104,-2.2105,-2.2108,-2.2095,-2.208,-2.2115,-2.2091,-2.2111,-2.2111,-2.2119,-2.2118,-2.2184,-2.2121,-2.2121,-2.2121,-2.2121,0,-2.213,-2.2146,-2.2126,-2.2135,-2.2152,-2.2135,-2.2152,-2.2147,-2.2143,-2.2151,-2.2132,-2.214,-2.2122,-2.2129,-2.2119,-2.2136,-2.2137,-2.2133,-2.213,-2.2134,-2.2135,-2.2136,-2.2133,-2.2122,-2.2122,-2.2122,-2.2121,0,-2.2183,-2.217,-2.2186,-2.2176,-2.2174,-2.2187,-2.2178,-2.2187,-2.2179,-2.219,-2.2191,-2.2178,-2.2186,-2.2173,-2.2179,-2.2172,-2.2195,-2.2188,-2.2196,-2.2194,-2.2214,-2.2213,-2.2282,-2.2291,-2.2223,-2.2223,-2.2224,0,-2.2214,-2.2226,-2.2217,-2.2221,-2.2219,-2.2226,-2.2228,-2.2212,-2.2215,-2.2213,-2.2222,-2.2228,-2.2231,-2.2244,-2.2236,-2.224,-2.2233,-2.2257,-2.2234,-2.2238,-2.2234,-2.2233,-2.2235,-2.2262,-2.2263,-2.2264,-2.2264,0,-2.2271,-2.2264,-2.2268,-2.227,-2.2274,-2.2275,-2.2274,-2.2279,-2.2262,-2.2267,-2.2274,-2.2277,-2.2283,-2.2289,-2.2292,-2.2289,-2.2274,-2.2272,-2.2277,-2.2281,-2.2286,-2.2284,-2.2209,-2.227,-2.2269,-2.2269,-2.2269,-2.2268,-2.2314,-2.2323,-2.2318,-2.2324,-2.2322,-2.2322,-2.233,-2.2323,-2.2328,-2.2332,-2.2322,-2.2331,-2.2329,-2.2331,-2.233,-2.2337,-2.2327,-2.2334,-2.2335,-2.2337,-2.2341,-2.2285,-2.2338,-2.2337,-2.2337,-2.2337,-2.2337,0,-2.2369,-2.2365,-2.237,-2.2371,-2.2375,-2.2361,-2.236,-2.2365,-2.2373,-2.2372,-2.2376,-2.2384,-2.239,-2.2383,-2.2387,-2.2395,-2.2389,-2.2397,-2.2396,-2.2396,-2.235,-2.2345,-2.2402,-2.2402,-2.2402,-2.2402,-2.2402,-2.2402,-2.2398,-2.2414,-2.2407,-2.2421,-2.2417,-2.2426,-2.2427,-2.2427,-2.2426,-2.2436,-2.2441,-2.2436,-2.2432,-2.2437,-2.2442,-2.244,-2.2443,-2.2453,-2.2449,-2.2406,-2.2399,-2.2393,-2.2389,-2.2454,-2.2454,-2.2494,-2.2495,-2.2495]},{"header":{"parameterUnit":"m.s-1","parameterCategory":1,"la1":30.2991,"la2":30.254,"lo1":-89.0895,"lo2":-89.0444,"dy":0.0017,"dx":0.0017,"nx":28,"ny":28,"refTime":"2025-01-17T03:00:00:Z","depth":0,"parameterNumber":3,"parameterNumberName":"V-component_of_WINDS"},"data":[0,0,0,0,0,0,0,0,0,0,0,0,0,0,0,0,0,0,0,0,0,0,0,0,0,0,0,0,0,0,0,0,0,0,0,0,0,0,0,0,0,0,0,0,0,0,0,0,0,0,0,0,0,0,0,0,0,0,0.8056,0.8056,0,0.8071,0.8071,0.8072,0.8077,0.8077,0.8077,0.8077,0.8091,0.8092,0.8092,0,0,0,0,0,0,0,0,0,0,0,0,0,0.8032,0.8032,0.8056,0.8056,0.8056,0.8071,0.8071,0.8072,0.8077,0.8077,0.8077,0.8077,0.8091,0.8092,0.8092,0,0,0,0,0,0,0,0,0,0,0,0,0,0.8044,0.8032,0.8056,0.8061,0.8061,0.8071,0.8071,0.8072,0.8077,0.8077,0.8077,0.8077,0.8091,0.8091,0.8092,0.8098,0,0,0.8094,0.8094,0,0,0,0,0,0,0,0,0.8043,0.8045,0.806,0.8061,0.8061,0.8072,0.8068,0.808,0.8077,0.8071,0.8077,0.8077,0.8085,0.8086,0.8089,0.8098,0.8099,0.8094,0.8095,0.8095,0.8095,0,0,0,0,0,0,0,0.8042,0.8044,0.8062,0.806,0.8061,0.8062,0.8064,0.807,0.8078,0.8072,0.8072,0.8074,0.8085,0.8088,0.8089,0.8099,0.8094,0.8095,0.8095,0.8095,0.8116,0.8116,0,0,0,0,0,0,0.8041,0.8044,0.8062,0.8062,0.8052,0.8063,0.8065,0.8069,0.8078,0.8079,0.8074,0.8074,0.8087,0.8089,0.809,0.8098,0.8095,0.8095,0.8096,0.8115,0.8116,0.8116,0,0,0,0,0,0,0.804,0.8042,0.8061,0.8053,0.8056,0.8063,0.8068,0.8069,0.8072,0.808,0.8081,0.8076,0.8087,0.8089,0.8096,0.8098,0.8096,0.8096,0.8115,0.8116,0.8116,0.8114,0,0,0,0,0,0,0.804,0.8042,0.8044,0.8053,0.8056,0.8067,0.8068,0.8069,0.8073,0.8074,0.8082,0.8083,0.8087,0.8095,0.8097,0.8099,0.8097,0.8115,0.8115,0.8116,0.8113,0.8114,0.8114,0,0,0,0,0,0.8039,0.8042,0.8044,0.8046,0.8059,0.8067,0.8069,0.8074,0.8074,0.8076,0.8081,0.8083,0.8098,0.8096,0.8098,0.81,0.8115,0.8115,0.8116,0.8113,0.8114,0.8114,0,0,0,0,0,0,0.8032,0.8043,0.8046,0.8052,0.8059,0.8068,0.8071,0.8074,0.808,0.808,0.8085,0.8087,0.8094,0.8098,0.8095,0.8107,0.8107,0.8107,0.8104,0.8105,0.8105,0.8104,0.8097,0,0,0,0,0,0.8032,0.8038,0.8047,0.8052,0.8055,0.8063,0.8066,0.807,0.8077,0.8079,0.8085,0.8091,0.8097,0.8101,0.8107,0.8114,0.8117,0.8117,0.8117,0.8118,0.8118,0.8123,0.8124,0.8117,0.8117,0.8117,0,0,0.8031,0.8038,0.8041,0.8051,0.8057,0.8063,0.8065,0.8071,0.8076,0.808,0.8087,0.8092,0.8099,0.8107,0.811,0.811,0.8121,0.8118,0.8118,0.8118,0.8124,0.8124,0.8125,0.8117,0.8117,0.8117,0,0,0.8032,0.8037,0.8043,0.8049,0.8057,0.8062,0.8064,0.8073,0.8076,0.8084,0.8088,0.8094,0.8104,0.811,0.8114,0.8119,0.8121,0.8121,0.8122,0.8127,0.8128,0.8128,0.8131,0.8131,0.8122,0.8122,0.8122,0,0.8029,0.8039,0.8045,0.8052,0.8056,0.8062,0.8068,0.8073,0.8083,0.8086,0.8086,0.81,0.8106,0.8115,0.8117,0.812,0.8122,0.812,0.8127,0.8128,0.8128,0.8131,0.8132,0.8121,0.8121,0.8121,0.8121,0,0.8035,0.8042,0.8045,0.8056,0.8061,0.8067,0.8075,0.808,0.8083,0.8088,0.8097,0.8104,0.8112,0.8115,0.8118,0.8125,0.8125,0.8126,0.8125,0.8129,0.8131,0.8132,0.8121,0.8121,0.8121,0.8121,0,0,0.8031,0.8047,0.8048,0.8054,0.8064,0.807,0.8077,0.8085,0.809,0.8097,0.8103,0.8113,0.8114,0.8119,0.8123,0.8127,0.8133,0.8128,0.8128,0.8129,0.8142,0.8141,0.8142,0.8134,0.8135,0.8135,0.8142,0,0.8034,0.8047,0.8054,0.8064,0.807,0.8077,0.8083,0.809,0.8096,0.8103,0.8109,0.8116,0.8117,0.812,0.8125,0.8131,0.8135,0.813,0.814,0.8141,0.8138,0.8144,0.8142,0.8148,0.8143,0.8143,0.8143,0,0.8038,0.8047,0.8058,0.8069,0.8072,0.8078,0.8087,0.8094,0.8103,0.8106,0.8113,0.8117,0.8125,0.8125,0.8136,0.8133,0.8137,0.8141,0.8142,0.8143,0.8142,0.8145,0.815,0.8151,0.8144,0.8144,0.8144,0,0.8035,0.8049,0.8058,0.8062,0.8076,0.808,0.8085,0.8094,0.81,0.8108,0.8112,0.8121,0.8126,0.8133,0.814,0.8139,0.8151,0.8151,0.8154,0.8154,0.8156,0.8156,0.8163,0.8159,0.8159,0.8159,0.8159,0,0.8038,0.8044,0.8057,0.8062,0.807,0.8078,0.8086,0.8092,0.81,0.8107,0.8113,0.8119,0.8128,0.8136,0.8141,0.815,0.8152,0.8156,0.8157,0.8155,0.8155,0.8158,0.8158,0.8159,0.8159,0.8159,0.8159,0,0.8035,0.8044,0.8054,0.8066,0.807,0.8075,0.8086,0.8092,0.8098,0.8107,0.811,0.812,0.8129,0.8137,0.8149,0.8153,0.8162,0.8164,0.8159,0.816,0.8164,0.8163,0.8173,0.8175,0.817,0.817,0.817,0,0.8036,0.8041,0.8055,0.806,0.8066,0.8075,0.8081,0.809,0.8096,0.8108,0.8112,0.8122,0.8131,0.8146,0.8154,0.8163,0.8165,0.8168,0.8167,0.8165,0.8166,0.8166,0.8167,0.8168,0.8168,0.8168,0.8168,0,0.8036,0.8041,0.805,0.8061,0.8068,0.8077,0.8085,0.8089,0.81,0.8107,0.8117,0.8124,0.8137,0.8147,0.8158,0.8164,0.8168,0.8169,0.817,0.8168,0.8166,0.8168,0.816,0.8168,0.8168,0.8168,0.8168,0.8168,0.8036,0.8041,0.8053,0.8063,0.8071,0.8079,0.8086,0.8094,0.8102,0.8114,0.8119,0.813,0.814,0.8155,0.8162,0.817,0.8171,0.8173,0.8173,0.8174,0.8174,0.8165,0.8172,0.8172,0.8172,0.8172,0.8172,0,0.8037,0.8045,0.8054,0.8067,0.8075,0.808,0.809,0.8097,0.8106,0.8116,0.8125,0.8137,0.8147,0.8157,0.8168,0.8173,0.8176,0.8176,0.8176,0.8177,0.8172,0.817,0.8174,0.8174,0.8174,0.8174,0.8174,0.8174,0.8039,0.8049,0.8055,0.807,0.8078,0.8089,0.8095,0.8103,0.8111,0.8125,0.8134,0.8141,0.8151,0.8163,0.8173,0.8175,0.8179,0.8179,0.8182,0.8178,0.8177,0.8177,0.8175,0.818,0.818,0.8187,0.8187,0.8187]}]]